TUI3FB LEPA-EDDV

Flight info

Callsign TUI3FB
Flight time N/A
Altitude 34000
Route MEROS N853 LUMAS DCT MAXIR DCT LUSOL DCT BODRU DCT OKTET DCT IRMAR DCT KINES DCT VANAS DCT ESOKO DCT GODRA/N0454F350 DCT LOKTA DCT TEDGO DCT HAREM DCT LOHRE DCT MASEK Z99 ELNAT P605 WERRA WERRA1X/27L
Aircraft B738/M-SDE2E3FGHIRWXY/LB1

Departure

Time N/A
Airport Palma de Mallorca Airport (LEPA)

Arrival

Time 2026-05-03 20:20
Airport Hannover Airport (EDDV)
Time Latitude Longitude Altitude Speed Heading
2026-05-03 20:15 52.44599 10.02716 2976 ft 150 kts 266°
2026-05-03 20:15 52.44631 10.01012 2967 ft 148 kts 266°
2026-05-03 20:15 52.44668 9.99339 2951 ft 146 kts 266°
2026-05-03 20:15 52.44708 9.97650 2986 ft 151 kts 267°
2026-05-03 20:16 52.44751 9.95917 2982 ft 152 kts 267°
2026-05-03 20:16 52.44795 9.94191 2923 ft 151 kts 268°
2026-05-03 20:16 52.44838 9.92490 2736 ft 148 kts 267°
2026-05-03 20:16 52.44881 9.90808 2544 ft 148 kts 267°
2026-05-03 20:17 52.44924 9.89127 2355 ft 148 kts 268°
2026-05-03 20:17 52.44967 9.87444 2155 ft 146 kts 268°
2026-05-03 20:17 52.45009 9.85863 1977 ft 134 kts 268°
2026-05-03 20:17 52.45049 9.84355 1796 ft 131 kts 267°
2026-05-03 20:18 52.45090 9.82882 1593 ft 128 kts 267°
2026-05-03 20:18 52.45123 9.81380 1437 ft 140 kts 267°
2026-05-03 20:18 52.45149 9.79747 1235 ft 142 kts 269°
2026-05-03 20:18 52.45185 9.78160 1054 ft 142 kts 270°
2026-05-03 20:19 52.45250 9.76520 838 ft 147 kts 271°
2026-05-03 20:19 52.45295 9.74834 661 ft 151 kts 271°
2026-05-03 20:19 52.45343 9.73092 481 ft 154 kts 273°
2026-05-03 20:19 52.45395 9.71366 261 ft 150 kts 272°
2026-05-03 20:20 52.45437 9.69820 180 ft 123 kts 272°
2026-05-03 20:20 52.45468 9.68768 181 ft 61 kts 272°
2026-05-03 20:20 52.45480 9.68318 180 ft 23 kts 278°
2026-05-03 20:20 52.45557 9.68256 179 ft 13 kts
2026-05-03 20:21 52.45638 9.68291 178 ft 13 kts 61°
2026-05-03 20:21 52.45641 9.68434 178 ft 12 kts 92°
2026-05-03 20:21 52.45638 9.68575 178 ft 12 kts 92°
2026-05-03 20:21 52.45635 9.68710 178 ft 12 kts 92°
2026-05-03 20:22 52.45632 9.68846 178 ft 12 kts 92°
2026-05-03 20:22 52.45626 9.68978 178 ft 12 kts 93°
2026-05-03 20:22 52.45627 9.69105 178 ft 11 kts 69°
2026-05-03 20:22 52.45694 9.69146 177 ft 11 kts
2026-05-03 20:23 52.45758 9.69194 177 ft 10 kts 61°
2026-05-03 20:23 52.45760 9.69311 177 ft 10 kts 93°
2026-05-03 20:23 52.45773 9.69415 177 ft 9 kts 40°
2026-05-03 20:23 52.45821 9.69450 178 ft 5 kts 22°
2026-05-03 20:24 52.45840 9.69463 178 ft 0 kts 22°